Location: Bun Machan
(52.1403°N, 7.3744°W)
Time: 02:33:35
(UTC+00:00)

Okean 1-7 - Pass Details

Date: 14 July 2020
Orbit: 592 x 618 km, 82.5° (Epoch: 04 August)

Event Time Altitude Azimuth Distance (km) Brightness Sun altitude
Rises 01:09:51 0° 353° (N) 2,907 8.0 -15.8°
Reaches altitude 10° 01:12:11 10° 360° (N) 1,996 7.0 -15.8°
Maximum altitude 01:16:26 45° 73° (ENE) 849 3.9 -15.7°
Enters shadow 01:19:45 16° 142° (SE) 1,644 4.9 -15.6°
